FW9748 Weather Reports


time (UTC)temp
C
wind
direction
speed
KPH
gust
KPH
rain 1hr
cm
rain 24hr
cm
rain mn
cm
humidity
%
barometer
mb
20260906150305 26 64 6.4 9.7 0.00 0.00 0.00 76 1015.2
20260906145805 26 110 4.8 9.7 0.00 0.00 0.00 78 1014.9
20260906145306 26 1 4.8 8.0 0.00 0.00 0.00 77 1014.9
20260906144305 26 138 4.8 4.8 0.00 0.00 0.00 80 1014.9
20260906143805 26 23 4.8 9.7 0.00 0.00 0.00 78 1014.9
20260906143305 26 68 4.8 11.3 0.00 0.00 0.00 80 1014.9
20260906142805 26 138 6.4 9.7 0.00 0.00 0.00 80 1014.6
20260906142306 26 81 4.8 8.0 0.00 0.00 0.00 80 1014.9
20260906141806 26 162 6.4 8.0 0.00 0.00 0.00 80 1014.9
20260906141305 25 90 4.8 11.3 0.00 0.00 0.00 81 1014.6
20260906140305 26 84 3.2 8.0 0.00 0.00 0.00 80 1014.9
20260906135306 25 34 3.2 3.2 0.00 0.00 0.00 81 1014.6
20260906134805 25 29 3.2 4.8 0.00 0.00 0.00 82 1014.9
20260906134305 25 52 3.2 8.0 0.00 0.00 0.00 83 1014.2
20260906133805 25 54 3.2 9.7 0.00 0.00 0.00 82 1014.8
20260906133305 25 54 3.2 3.2 0.00 0.00 0.00 82 1014.6
20260906132805 25 66 3.2 3.2 0.00 0.00 0.00 81 1014.9
20260906132307 25 22 3.2 4.8 0.00 0.00 0.00 82 1014.9
20260906131805 25 57 3.2 4.8 0.00 0.00 0.00 83 1014.9
20260906131305 24 46 1.6 3.2 0.00 0.00 0.00 84 1014.9
20260906130805 23 79 3.2 3.2 0.00 0.00 0.00 85 1014.9
20260906130305 23 81 3.2 8.0 0.00 0.00 0.00 87 1014.9
20260906125805 23 62 4.8 9.7 0.00 0.00 0.00 87 1014.6
20260906125306 23 70 1.6 3.2 0.00 0.00 0.00 85 1014.9
20260906124805 23 348 3.2 4.8 0.00 0.00 0.00 87 1014.9
20260906124305 23 54 3.2 3.2 0.00 0.00 0.00 88 1014.9
20260906122306 23 93 1.6 9.7 0.00 0.00 0.00 89 1014.5
20260906121805 23 93 4.8 9.7 0.00 0.00 0.00 90 1014.3
20260906121304 23 93 4.8 8.0 0.00 0.00 0.00 90 1014.5
20260906120805 22 93 1.6 3.2 0.00 0.00 0.00 89 1014.2
20260906120305 22 93 1.6 3.2 0.00 0.00 0.00 90 1014.2
20260906115805 22 93 3.2 3.2 0.00 0.00 0.00 90 1014.2
20260906115306 22 93 1.6 3.2 0.00 0.00 0.00 90 1014.2
20260906114804 22 93 3.2 3.2 0.00 0.00 0.00 90 1014.2
20260906114305 22 93 3.2 3.2 0.00 0.00 0.00 90 1013.9
20260906113805 22 93 3.2 3.2 0.00 0.00 0.00 90 1013.9
20260906113304 23 93 1.6 4.8 0.00 0.00 0.00 89 1013.9
20260906112805 23 93 3.2 4.8 0.00 0.00 0.00 90 1013.9
20260906111805 23 93 3.2 3.2 0.00 0.00 0.00 90 1013.9
20260906111305 23 93 1.6 3.2 0.00 0.00 0.00 90 1013.9
20260906110305 23 93 1.6 3.2 0.00 0.00 0.00 90 1013.9
20260906105805 23 93 3.2 3.2 0.00 0.00 0.00 90 1013.9
20260906105306 23 93 1.6 3.2 0.00 0.00 0.00 90 1013.9
20260906104804 23 93 3.2 3.2 0.00 0.00 0.00 89 1013.5
20260906104305 23 93 1.6 3.2 0.00 0.00 0.00 90 1013.9
20260906103804 23 93 1.6 3.2 0.00 0.00 0.00 89 1013.5
20260906103305 23 93 3.2 3.2 0.00 0.00 0.00 89 1013.5
20260906101805 23 93 1.6 3.2 0.00 0.00 0.00 90 1013.5
20260906101304 23 93 1.6 3.2 0.00 0.00 0.00 90 1013.2
20260906100805 23 93 1.6 1.6 0.00 0.00 0.00 89 1013.5
20260906100304 24 93 3.2 8.0 0.00 0.00 0.00 89 1013.2
20260906095804 24 93 1.6 8.0 0.00 0.00 0.00 89 1013.5
20260906095306 24 93 1.6 3.2 0.00 0.00 0.00 89 1013.2
20260906094805 24 93 3.2 3.2 0.00 0.00 0.00 89 1013.2
20260906094304 24 93 1.6 4.8 0.00 0.00 0.00 89 1012.9
20260906093805 24 93 3.2 4.8 0.00 0.00 0.00 89 1012.9
20260906093305 24 93 3.2 3.2 0.00 0.00 0.00 89 1013.2
20260906092306 24 93 3.2 4.8 0.00 0.00 0.00 89 1012.9
20260906091804 25 93 3.2 8.0 0.00 0.00 0.00 88 1013.2
20260906091305 25 93 3.2 3.2 0.00 0.00 0.00 88 1013.0
20260906090805 25 93 3.2 4.8 0.00 0.00 0.00 88 1012.9
20260906090304 25 93 3.2 8.0 0.00 0.00 0.00 88 1012.9
20260906085805 25 93 3.2 3.2 0.00 0.00 0.00 88 1012.9
20260906085306 25 93 3.2 4.8 0.00 0.00 0.00 88 1013.2
20260906084805 25 93 3.2 9.7 0.00 0.00 0.00 87 1012.5
20260906083804 25 93 4.8 9.7 0.00 0.00 0.00 86 1012.9
20260906083304 25 66 4.8 9.7 0.00 0.00 0.00 87 1012.5
20260906082805 25 42 3.2 4.8 0.00 0.00 0.00 87 1012.8
20260906081805 26 58 6.4 9.7 0.00 0.00 0.00 88 1012.2
20260906081304 26 155 3.2 8.0 0.00 0.00 0.00 88 1012.5
20260906080804 26 85 3.2 8.0 0.00 0.00 0.00 88 1012.5
20260906075804 26 108 3.2 4.8 0.00 0.00 0.00 87 1012.5
20260906075306 26 120 3.2 4.8 0.00 0.00 0.00 87 1012.5
20260906074805 26 132 6.4 8.0 0.00 0.00 0.00 87 1012.5
20260906073804 26 92 3.2 9.7 0.00 0.00 0.00 87 1012.9
20260906073304 26 89 3.2 4.8 0.00 0.00 0.00 86 1012.5
20260906072804 26 110 4.8 8.0 0.00 0.00 0.00 86 1012.9
20260906072306 26 62 3.2 8.0 0.00 0.00 0.00 87 1012.9
20260906071805 26 115 6.4 9.7 0.00 0.00 0.00 87 1012.9
20260906071304 27 125 4.8 9.7 0.00 0.00 0.00 87 1012.8
20260906070805 27 65 4.8 4.8 0.00 0.00 0.00 86 1012.5
20260906070304 27 113 4.8 8.0 0.00 0.00 0.00 86 1012.9
20260906065805 27 102 3.2 4.8 0.00 0.00 0.00 86 1012.5
20260906064804 27 119 3.2 4.8 0.00 0.00 0.00 85 1012.5
20260906064305 27 88 3.2 3.2 0.00 0.00 0.00 84 1012.7
20260906063804 27 71 3.2 3.2 0.00 0.00 0.00 84 1012.9
20260906062804 27 66 3.2 3.2 0.00 0.00 0.00 83 1012.5
20260906061805 27 72 1.6 4.8 0.00 0.00 0.00 82 1012.9
20260906061304 27 54 3.2 3.2 0.00 0.00 0.00 81 1012.5
20260906060804 27 43 3.2 3.2 0.00 0.00 0.00 81 1012.5
20260906060304 27 28 3.2 3.2 0.00 0.00 0.00 81 1012.9
20260906055804 27 28 0.0 1.6 0.00 0.00 0.00 81 1012.8
20260906055306 28 28 0.0 1.6 0.00 0.00 0.00 80 1012.5
20260906054804 28 28 1.6 1.6 0.00 0.00 0.00 80 1012.9
20260906054304 28 28 1.6 3.2 0.00 0.00 0.00 79 1012.5
20260906053804 28 28 1.6 1.6 0.00 0.00 0.00 79 1012.9
20260906052804 28 28 1.6 1.6 0.00 0.00 0.00 79 1012.5
20260906052306 28 28 0.0 0.0 0.00 0.00 0.00 78 1012.5
20260906050925 28 28 0.0 0.0 0.00 0.00 0.00 78 1012.5
20260906050304 28 28 0.0 1.6 0.00 0.00 0.00 77 1012.6
20260906045805 28 28 0.0 0.0 0.00 0.00 0.00 78 1012.8
20260906045306 28 28 0.0 0.0 0.00 0.00 0.00 78 1012.5
20260906044804 28 28 0.0 1.6 0.00 0.00 0.00 75 1012.5
20260906044304 29 28 1.6 1.6 0.00 0.00 0.00 75 1012.5
20260906043804 28 28 1.6 3.2 0.00 0.00 0.00 75 1012.2
20260906043304 28 28 1.6 1.6 0.00 0.00 0.00 75 1012.2
20260906042805 28 28 1.6 1.6 0.00 0.00 0.00 75 1012.2
20260906042306 28 28 1.6 3.2 0.00 0.00 0.00 74 1012.2
20260906041804 28 28 1.6 1.6 0.00 0.00 0.00 74 1012.2
20260906041304 28 28 0.0 0.0 0.00 0.00 0.00 74 1012.2
20260906040304 28 28 0.0 0.0 0.00 0.00 0.00 73 1012.2
20260906034804 28 28 0.0 0.0 0.00 0.00 0.00 70 1012.2
20260906034304 28 28 0.0 0.0 0.00 0.00 0.00 70 1012.2
20260906033804 28 28 0.0 0.0 0.00 0.00 0.00 70 1011.9
20260906033304 28 28 0.0 0.0 0.00 0.00 0.00 70 1012.2
20260906032804 28 28 0.0 0.0 0.00 0.00 0.00 69 1011.9
20260906032306 29 28 0.0 0.0 0.00 0.00 0.00 69 1011.9
20260906031804 29 28 0.0 0.0 0.00 0.00 0.00 68 1011.9
20260906030304 30 28 1.6 1.6 0.00 0.00 0.00 64 1011.5
20260906025804 30 28 1.6 3.2 0.00 0.00 0.00 63 1011.5
20260906025306 30 28 1.6 3.2 0.00 0.00 0.00 63 1011.9
20260906024804 30 26 0.0 0.0 0.00 0.00 0.00 62 1011.5
20260906024304 30 26 0.0 1.6 0.00 0.00 0.00 62 1011.5
20260906023803 30 26 1.6 3.2 0.00 0.00 0.00 61 1011.4
20260906023304 30 26 0.0 3.2 0.00 0.00 0.00 61 1011.2
20260906022805 30 25 1.6 3.2 0.00 0.00 0.00 62 1011.2
20260906022307 30 29 1.6 3.2 0.00 0.00 0.00 62 1011.2
20260906021804 30 30 0.0 0.0 0.00 0.00 0.00 63 1011.2
20260906021304 30 30 0.0 0.0 0.00 0.00 0.00 64 1010.8
20260906020804 30 30 0.0 0.0 0.00 0.00 0.00 63 1011.2
20260906020304 30 30 0.0 0.0 0.00 0.00 0.00 63 1010.8
20260906015803 30 30 0.0 0.0 0.00 0.00 0.00 64 1010.8
20260906015306 30 30 0.0 0.0 0.00 0.00 0.00 63 1010.8
20260906014803 30 30 0.0 1.6 0.00 0.00 0.00 64 1010.5
20260906014304 31 30 1.6 1.6 0.00 0.00 0.00 63 1010.5
20260906013804 31 30 1.6 1.6 0.00 0.00 0.00 64 1010.5
20260906013304 31 30 1.6 1.6 0.00 0.00 0.00 64 1010.5
20260906012803 31 30 1.6 1.6 0.00 0.00 0.00 64 1010.5
20260906012306 31 30 1.6 1.6 0.00 0.00 0.00 64 1010.5
20260906011803 31 34 0.0 1.6 0.00 0.00 0.00 64 1010.5
20260906011304 31 34 0.0 3.2 0.00 0.00 0.00 64 1010.5
20260906010804 31 33 0.0 0.0 0.00 0.00 0.00 64 1010.5
20260906010304 31 35 0.0 1.6 0.00 0.00 0.00 63 1010.2
20260906005804 31 35 1.6 1.6 0.00 0.00 0.00 62 1010.5
20260906005306 31 35 1.6 1.6 0.00 0.00 0.00 63 1010.2
20260906004804 31 35 0.0 1.6 0.00 0.00 0.00 62 1010.0
20260906004304 32 35 1.6 1.6 0.00 0.00 0.00 62 1009.9
20260906003804 32 35 0.0 1.6 0.00 0.00 0.00 62 1010.1
20260906003304 32 52 1.6 3.2 0.00 0.00 0.00 62 1009.8
20260906002804 32 48 3.2 3.2 0.00 0.00 0.00 61 1009.8
20260906002306 32 48 3.2 3.2 0.00 0.00 0.00 60 1010.2
20260906001804 32 40 3.2 4.8 0.00 0.00 0.00 59 1010.2
20260906001304 32 6 3.2 3.2 0.00 0.00 0.00 59 1010.2
20260906000804 32 42 3.2 4.8 0.00 0.00 0.00 58 1010.2
20260906000304 33 61 1.6 4.8 0.00 0.00 0.00 57 1010.2
20260905235806 33 0 4.8 8.0 0.00 0.00 0.00 57 1010.2
20260905235307 33 21 3.2 3.2 0.00 0.00 0.00 56 1010.5
20260905234806 33 21 1.6 1.6 0.00 0.00 0.00 57 1009.8
20260905234306 33 18 1.6 1.6 0.00 0.00 0.00 56 1010.2
20260905233806 33 357 1.6 3.2 0.00 0.00 0.00 55 1010.2
20260905233306 33 19 1.6 8.0 0.00 0.00 0.00 55 1010.5
20260905232806 33 2 1.6 3.2 0.00 0.00 0.00 55 1010.5
20260905232306 33 0 3.2 3.2 0.00 0.00 0.00 54 1010.2
20260905231806 33 24 3.2 3.2 0.00 0.00 0.00 53 1010.2
20260905231306 34 13 3.2 3.2 0.00 0.00 0.00 52 1010.2
20260905230806 34 8 3.2 3.2 0.00 0.00 0.00 52 1010.2
20260905230305 34 3 3.2 4.8 0.00 0.00 0.00 51 1010.5
20260905225806 35 60 3.2 4.8 0.00 0.00 0.00 49 1010.2
20260905225306 35 97 3.2 4.8 0.00 0.00 0.00 48 1010.2
20260905224805 35 1 3.2 4.8 0.00 0.00 0.00 51 1010.5
20260905224306 35 354 3.2 3.2 0.00 0.00 0.00 49 1010.2
20260905223806 36 54 3.2 4.8 0.00 0.00 0.00 48 1009.8
20260905223306 36 54 3.2 3.2 0.00 0.00 0.00 48 1009.8
20260905222806 36 81 4.8 8.0 0.00 0.00 0.00 47 1010.2
20260905222306 36 8 3.2 8.0 0.00 0.00 0.00 47 1009.8
20260905221806 36 104 4.8 8.0 0.00 0.00 0.00 46 1009.9
20260905221306 36 83 4.8 4.8 0.00 0.00 0.00 46 1010.1
20260905220806 36 42 4.8 9.7 0.00 0.00 0.00 45 1009.8
20260905220306 36 357 3.2 8.0 0.00 0.00 0.00 45 1010.2
20260905215805 37 23 3.2 8.0 0.00 0.00 0.00 44 1010.2
20260905214806 37 91 4.8 8.0 0.00 0.00 0.00 44 1010.2
20260905213306 37 31 6.4 9.7 0.00 0.00 0.00 45 1010.2
20260905212806 37 95 3.2 8.0 0.00 0.00 0.00 44 1009.8
20260905212306 37 81 3.2 3.2 0.00 0.00 0.00 42 1009.8
20260905211306 37 89 3.2 8.0 0.00 0.00 0.00 45 1009.8
20260905210806 37 109 4.8 8.0 0.00 0.00 0.00 43 1009.8
20260905205806 37 54 4.8 4.8 0.00 0.00 0.00 42 1009.8
20260905205306 37 118 4.8 4.8 0.00 0.00 0.00 43 1010.5
20260905204306 37 60 3.2 8.0 0.00 0.00 0.00 44 1010.5
20260905203306 38 109 3.2 4.8 0.00 0.00 0.00 43 1010.3
20260905202806 37 73 4.8 8.0 0.00 0.00 0.00 43 1010.5
20260905202306 37 6 4.8 4.8 0.00 0.00 0.00 41 1010.5
20260905201807 38 83 3.2 4.8 0.00 0.00 0.00 40 1010.5
20260905201306 38 10 4.8 8.0 0.00 0.00 0.00 42 1010.5
20260905200806 38 39 4.8 8.0 0.00 0.00 0.00 43 1010.5
20260905200305 38 24 3.2 4.8 0.00 0.00 0.00 42 1010.5
20260905195805 38 90 3.2 4.8 0.00 0.00 0.00 43 1010.5
20260905194805 38 76 4.8 8.0 0.00 0.00 0.00 44 1010.5
20260905193805 38 96 3.2 8.0 0.00 0.00 0.00 41 1010.5
20260905193306 38 352 4.8 9.7 0.00 0.00 0.00 38 1010.5
20260905192806 39 318 4.8 9.7 0.00 0.00 0.00 38 1010.5
20260905192306 38 1 3.2 12.9 0.00 0.00 0.00 37 1010.5
20260905191806 38 356 4.8 9.7 0.00 0.00 0.00 38 1010.8
20260905191306 38 22 1.6 3.2 0.00 0.00 0.00 38 1010.5
20260905190805 38 5 3.2 8.0 0.00 0.00 0.00 41 1010.5
20260905190305 38 354 3.2 4.8 0.00 0.00 0.00 40 1010.8
20260905185806 37 53 3.2 3.2 0.00 0.00 0.00 41 1011.1
20260905185306 37 168 1.6 3.2 0.00 0.00 0.00 43 1010.8
20260905183805 38 23 4.8 8.0 0.00 0.00 0.00 40 1010.8
20260905182306 38 162 3.2 4.8 0.00 0.00 0.00 40 1010.9
20260905181305 38 210 3.2 3.2 0.00 0.00 0.00 43 1011.2
20260905180305 38 114 3.2 4.8 0.00 0.00 0.00 40 1011.5
20260905175806 38 174 3.2 4.8 0.00 0.00 0.00 41 1011.5
20260905175306 37 293 3.2 3.2 0.00 0.00 0.00 43 1011.5
20260905174805 37 218 4.8 4.8 0.00 0.00 0.00 46 1011.9
20260905174305 37 339 3.2 3.2 0.00 0.00 0.00 46 1011.9
20260905173805 37 228 4.8 4.8 0.00 0.00 0.00 47 1011.9
20260905173306 36 263 3.2 4.8 0.00 0.00 0.00 47 1011.5
20260905172805 37 245 3.2 4.8 0.00 0.00 0.00 48 1011.9
20260905171805 37 358 3.2 4.8 0.00 0.00 0.00 48 1011.9
20260905171306 37 24 1.6 3.2 0.00 0.00 0.00 46 1011.9
20260905170805 38 12 3.2 3.2 0.00 0.00 0.00 47 1012.2
20260905170306 37 108 3.2 4.8 0.00 0.00 0.00 48 1012.2
20260905165306 37 234 4.8 4.8 0.00 0.00 0.00 49 1012.2
20260905164806 37 7 3.2 3.2 0.00 0.00 0.00 49 1012.2
20260905164305 36 7 1.6 4.8 0.00 0.00 0.00 48 1012.5
20260905163806 37 353 4.8 4.8 0.00 0.00 0.00 47 1012.6
20260905163305 37 350 3.2 4.8 0.00 0.00 0.00 47 1012.8
20260905162806 36 132 1.6 4.8 0.00 0.00 0.00 47 1012.5
20260905162306 36 335 3.2 3.2 0.00 0.00 0.00 50 1012.9
20260905161805 36 30 3.2 3.2 0.00 0.00 0.00 49 1012.5
20260905161305 36 24 3.2 4.8 0.00 0.00 0.00 50 1012.9
20260905160805 35 102 3.2 3.2 0.00 0.00 0.00 50 1012.5
20260905160305 36 102 0.0 1.6 0.00 0.00 0.00 50 1012.5
20260905155805 36 102 3.2 3.2 0.00 0.00 0.00 50 1012.6
20260905155306 35 101 4.8 4.8 0.00 0.00 0.00 51 1012.9
20260905154805 35 116 1.6 3.2 0.00 0.00 0.00 52 1012.9
20260905154305 35 30 1.6 1.6 0.00 0.00 0.00 53 1012.9
20260905153305 35 60 1.6 3.2 0.00 0.00 0.00 52 1012.9
20260905152805 34 336 3.2 3.2 0.00 0.00 0.00 56 1012.9
20260905152306 33 276 3.2 3.2 0.00 0.00 0.00 56 1012.6
20260905151805 33 240 3.2 3.2 0.00 0.00 0.00 57 1012.8
20260905151305 33 318 1.6 3.2 0.00 0.00 0.00 58 1012.5
20260905150805 33 324 3.2 3.2 0.00 0.00 0.00 60 1012.9